EW5773 Weather Reports


Display with metric or nautical units.
time (UTC)temp
F
wind
direction
speed
MPH
gust
MPH
rain 1hr
in
rain 24hr
in
rain mn
in
humidity
%
barometer
mb
20260831193007 66 285 0.0 3.0 0.00 0.00 0.00 65 1019.2
20260831191503 66 285 1.0 5.0 0.00 0.00 0.00 64 1018.9
20260831190006 67 286 1.0 5.0 0.00 0.00 0.00 63 1018.8
20260831184502 68 286 1.0 5.0 0.00 0.00 0.00 62 1018.6
20260831183015 68 274 2.0 7.0 0.00 0.00 0.00 60 1018.7
20260831181514 69 277 2.0 7.0 0.00 0.00 0.00 58 1018.6
20260831180126 70 283 2.0 9.0 0.00 0.00 0.00 57 1018.3
20260831174516 71 273 2.0 9.0 0.00 0.00 0.00 56 1018.2
20260831173018 71 238 7.0 16.0 0.00 0.00 0.00 56 1018.1
20260831171511 72 223 5.0 12.0 0.00 0.00 0.00 57 1018.1
20260831170010 72 287 6.0 12.0 0.00 0.00 0.00 58 1018.1
20260831164532 72 298 5.0 12.0 0.00 0.00 0.00 59 1017.8
20260831163102 72 279 4.0 14.0 0.00 0.00 0.00 60 1017.9
20260831161603 73 261 7.0 18.0 0.00 0.00 0.00 58 1017.7
20260831160056 73 241 10.0 19.0 0.00 0.00 0.00 58 1017.8
20260831154526 73 223 9.0 20.0 0.00 0.00 0.00 59 1017.8
20260831153007 73 218 10.0 22.0 0.00 0.00 0.00 57 1017.7
20260831151506 73 304 8.0 20.0 0.00 0.00 0.00 56 1017.6
20260831150005 72 280 11.0 21.0 0.00 0.00 0.00 58 1017.5
20260831144510 73 234 14.0 23.0 0.00 0.00 0.00 58 1017.4
20260831143011 73 206 8.0 20.0 0.00 0.00 0.00 57 1017.2
20260831141508 73 253 14.0 23.0 0.00 0.00 0.00 56 1017.2
20260831140008 74 227 13.0 19.0 0.00 0.00 0.00 54 1017.2
20260831134514 73 270 13.0 25.0 0.00 0.00 0.00 56 1017.0
20260831133015 73 232 7.0 23.0 0.00 0.00 0.00 57 1016.9
20260831131614 73 240 13.0 23.0 0.00 0.00 0.00 56 1016.8
20260831130016 73 168 12.0 25.0 0.00 0.00 0.00 55 1016.8
20260831124516 73 262 11.0 24.0 0.00 0.00 0.00 56 1016.7
20260831123018 72 250 11.0 20.0 0.00 0.00 0.00 59 1016.6
20260831121508 72 224 13.0 21.0 0.00 0.00 0.00 58 1016.6
20260831120007 72 223 14.0 25.0 0.00 0.00 0.00 58 1016.3
20260831114602 71 219 12.0 22.0 0.00 0.00 0.00 61 1016.4
20260831113104 71 205 12.0 25.0 0.00 0.00 0.00 61 1016.2
20260831111558 70 137 9.0 25.0 0.00 0.00 0.00 63 1016.3
20260831110055 69 205 10.0 20.0 0.00 0.00 0.00 66 1016.0
20260831104602 69 282 9.0 17.0 0.00 0.00 0.00 67 1016.1
20260831103020 68 238 10.0 18.0 0.00 0.00 0.00 67 1016.0
20260831101517 67 217 10.0 24.0 0.00 0.00 0.00 67 1015.8
20260831100022 68 236 13.0 26.0 0.00 0.00 0.00 66 1015.8
20260831094514 69 111 12.0 23.0 0.00 0.00 0.00 65 1015.6
20260831093014 68 242 12.0 28.0 0.00 0.00 0.00 68 1015.5
20260831091509 67 166 11.0 22.0 0.00 0.00 0.00 72 1015.5
20260831090008 65 206 11.0 23.0 0.00 0.00 0.00 74 1015.4
20260831084509 65 238 11.0 24.0 0.00 0.00 0.00 76 1015.3
20260831083006 64 250 7.0 17.0 0.00 0.00 0.00 81 1015.2
20260831081506 63 242 8.0 17.0 0.00 0.00 0.00 82 1015.1
20260831080013 64 217 7.0 18.0 0.00 0.00 0.00 81 1014.9
20260831074504 64 253 9.0 21.0 0.00 0.00 0.00 80 1014.7
20260831073105 63 219 9.0 21.0 0.00 0.00 0.00 80 1014.7
20260831071528 63 228 9.0 16.0 0.00 0.00 0.00 82 1014.5
20260831070028 63 194 10.0 19.0 0.00 0.00 0.00 84 1014.4
20260831064555 62 211 7.0 15.0 0.00 0.00 0.00 85 1014.3
20260831063024 62 229 7.0 18.0 0.00 0.00 0.00 85 1014.1
20260831061520 62 200 6.0 13.0 0.00 0.00 0.00 85 1013.9
20260831060017 61 199 8.0 14.0 0.00 0.00 0.00 86 1013.7
20260831054514 61 217 4.0 13.0 0.00 0.00 0.00 85 1013.7
20260831053031 61 262 4.0 14.0 0.00 0.00 0.00 84 1013.5
20260831051512 61 158 7.0 15.0 0.00 0.00 0.00 84 1013.4
20260831050007 62 211 5.0 16.0 0.00 0.00 0.00 84 1013.3
20260831044515 62 207 7.0 20.0 0.00 0.00 0.00 83 1013.1
20260831043005 62 207 9.0 19.0 0.00 0.00 0.00 84 1013.1
20260831041505 62 133 4.0 12.0 0.00 0.00 0.00 85 1013.0
20260831034524 62 167 7.0 11.0 0.00 0.00 0.00 85 1013.0
20260831033020 61 144 6.0 11.0 0.00 0.00 0.00 85 1013.1
20260831031557 62 192 6.0 13.0 0.00 0.00 0.00 84 1013.1
20260831030013 62 219 4.0 10.0 0.00 0.00 0.00 84 1013.1
20260831024514 62 205 8.0 14.0 0.00 0.00 0.00 83 1013.1
20260831023014 61 331 7.0 15.0 0.00 0.00 0.00 85 1013.1
20260831021509 61 191 6.0 12.0 0.00 0.00 0.00 86 1013.0
20260831020009 62 174 7.0 12.0 0.00 0.00 0.00 86 1012.9
20260831014509 62 167 8.0 13.0 0.00 0.00 0.00 86 1012.9
20260831013008 62 178 6.0 18.0 0.00 0.00 0.00 86 1013.0
20260831011509 62 189 7.0 15.0 0.00 0.00 0.00 86 1012.9
20260831010009 62 201 8.0 16.0 0.00 0.00 0.00 85 1012.9
20260831004523 62 193 7.0 14.0 0.00 0.00 0.00 84 1013.0
20260831003019 62 174 6.0 18.0 0.00 0.00 0.00 84 1012.9
20260831001515 62 179 9.0 16.0 0.00 0.00 0.00 83 1012.9
20260831000025 63 177 8.0 15.0 0.00 0.00 0.00 82 1012.9
20260830234512 63 200 8.0 14.0 0.00 0.00 0.00 81 1013.0
20260830233015 63 159 6.0 12.0 0.00 0.00 0.00 80 1013.0
20260830231505 62 175 6.0 11.0 0.00 0.00 0.00 79 1013.1
20260830230009 62 170 7.0 11.0 0.00 0.00 0.00 79 1013.0
20260830224503 62 196 4.0 8.0 0.00 0.00 0.00 79 1013.0
20260830223003 63 198 5.0 11.0 0.00 0.00 0.00 78 1012.9
20260830221518 63 178 5.0 9.0 0.00 0.00 0.00 78 1012.8
20260830220018 63 199 6.0 12.0 0.00 0.00 0.00 77 1012.9
20260830214516 63 224 5.0 11.0 0.00 0.00 0.00 78 1012.8
20260830213011 64 200 3.0 10.0 0.00 0.00 0.00 77 1012.8
20260830211514 64 194 4.0 10.0 0.00 0.00 0.00 76 1012.7
20260830210010 65 187 6.0 12.0 0.00 0.00 0.00 75 1012.5
20260830204506 65 196 7.0 12.0 0.00 0.00 0.00 74 1012.4
20260830203009 65 196 6.0 10.0 0.00 0.00 0.00 74 1012.3
20260830201517 66 196 5.0 10.0 0.00 0.00 0.00 73 1012.2
20260830200017 66 198 5.0 10.0 0.00 0.00 0.00 73 1012.3
20260830194521 67 194 5.0 11.0 0.00 0.00 0.00 72 1012.3